Rawlins, WY

11:09 AM MST on November 20, 2017 (GMT -0700)
Rawlins Municipal

Weather History for KRWL - August, 2013

Change the Weather History Date:

Monday, August 19, 2013

  Actual Average Record
Temperature  
Mean Temperature 70 °F 65 °F  
Max Temperature 91 °F 81 °F 91 °F (2013)
Min Temperature 49 °F 49 °F 32 °F (2015)
Degree Days  
Heating Degree Days 0 2  
Month to date heating degree days 7 24  
Since 1 June heating degree days 108 249  
Since 1 July heating degree days 7 59  
Cooling Degree Days 5 2  
Month to date cooling degree days 72 50  
Year to date cooling degree days 272 167  
Since 1 June cooling degree days 271 167  
Growing Degree Days 20 (Base 50)    
Moisture  
Dew Point 31 °F    
Average Humidity 36    
Maximum Humidity 63    
Minimum Humidity 8    
Precipitation  
Precipitation 0.00 in 0.02 in 0.43 in (1959)
Month to date precipitation 0.21 0.48  
Year to date precipitation 3.43 6.27  
Sea Level Pressure  
Sea Level Pressure 29.92 in    
Wind  
Wind Speed 8 mph (West)    
Max Wind Speed 20 mph    
Max Gust Speed 25 mph    
Visibility 10 miles    
Events      
T = Trace of Precipitation, MM = Missing Value Source: NWS Daily Summary

Daily Weather History Graph

Daily Weather History Graph

Search for Another Location

Airport or City:

Trip Planner

Search our weather history database for the weather conditions in past years. The results will help you decide how hot, cold, wet, or windy it might be!

Date:

Astronomy

Aug. 19, 2013 Rise Set
Actual Time 6:21 AM MDT 8:02 PM MDT
Civil Twilight 5:51 AM MDT 8:31 PM MDT
Nautical Twilight 5:15 AM MDT 9:07 PM MDT
Astronomical Twilight 4:37 AM MDT 9:45 PM MDT
Moon 6:55 PM MDT (8/19) 4:43 AM MDT (8/19)
Length of Visible Light 14h 40m
Length of Day
13h 40m
Waxing Gibbous, 97% of the Moon is Illuminated
Aug 19
Waxing Gibbous
Aug 20
Full
Aug 28
Last Quarter
Sep 5
New
Sep 12
First Quarter

Hourly Weather History & Observations

Time (MDT) Temp. Dew Point Humidity Pressure Visibility Wind Dir Wind Speed Gust Speed Precip Events Conditions
12:53 AM 61.0 °F 42.1 °F 50% 29.93 in 10.0 mi SW 8.1 mph - N/A   Clear
1:53 AM 63.0 °F 36.0 °F 37% 29.91 in 10.0 mi SW 5.8 mph - N/A   Clear
2:53 AM 59.0 °F 39.9 °F 49% 29.93 in 10.0 mi East 6.9 mph - N/A   Clear
3:53 AM 57.9 °F 39.0 °F 49% 29.93 in 10.0 mi North 8.1 mph - N/A   Clear
4:53 AM 57.9 °F 41.0 °F 53% 29.95 in 10.0 mi North 8.1 mph - N/A   Clear
5:53 AM 54.0 °F 39.9 °F 59% 29.98 in 10.0 mi Calm Calm - N/A   Clear
6:53 AM 51.1 °F 39.0 °F 63% 30.01 in 10.0 mi Calm Calm - N/A   Clear
7:53 AM 60.1 °F 42.1 °F 51% 30.02 in 10.0 mi Calm Calm - N/A   Clear
8:53 AM 70.0 °F 39.0 °F 32% 30.01 in 10.0 mi Calm Calm - N/A   Clear
9:53 AM 78.1 °F 39.9 °F 25% 29.99 in 10.0 mi Variable 3.5 mph - N/A   Clear
10:53 AM 82.0 °F 34.0 °F 18% 29.99 in 10.0 mi West 10.4 mph - N/A   Clear
11:53 AM 84.0 °F 30.0 °F 14% 29.98 in 10.0 mi WSW 11.5 mph - N/A   Clear
12:53 PM 88.0 °F 24.1 °F 10% 29.95 in 10.0 mi West 13.8 mph 20.7 mph N/A   Clear
1:53 PM 88.0 °F 23.0 °F 9% 29.92 in 10.0 mi West 10.4 mph 21.9 mph N/A   Clear
2:53 PM 90.0 °F 21.0 °F 8% 29.91 in 10.0 mi West 13.8 mph 21.9 mph N/A   Clear
3:53 PM 89.1 °F 21.0 °F 8% 29.88 in 10.0 mi West 8.1 mph 18.4 mph N/A   Clear
4:53 PM 89.1 °F 21.0 °F 8% 29.87 in 10.0 mi West 17.3 mph 23.0 mph N/A   Clear
5:53 PM 88.0 °F 21.9 °F 9% 29.87 in 10.0 mi WNW 8.1 mph - N/A   Clear
6:53 PM 86.0 °F 23.0 °F 10% 29.87 in 10.0 mi WSW 6.9 mph - N/A   Clear
7:53 PM 82.0 °F 23.0 °F 11% 29.86 in 10.0 mi West 10.4 mph - N/A   Clear
8:53 PM 73.9 °F 24.1 °F 16% 29.87 in 10.0 mi WSW 5.8 mph - N/A   Clear
9:53 PM 72.0 °F 25.0 °F 17% 29.86 in 10.0 mi West 3.5 mph - N/A   Clear
10:53 PM 70.0 °F 25.0 °F 18% 29.86 in 10.0 mi WSW 5.8 mph - N/A   Clear
11:53 PM 73.0 °F 30.9 °F 21% 29.84 in 10.0 mi WNW 15.0 mph 20.7 mph N/A   Clear